STARLINK-4678, 53780

Orbit data source: Space-Track

STARLINK-4678, 53780 is a payload satellite owned by SpaceX/Seattle (US) in LEO that was launched on Sun, 11 Sep 2022 UTC via an FALCON 9 launch vehicle from the Air Force Eastern Test Range (AFETR). Payload-class satellites include a variety of spacecraft equipped with specific instruments for various scientific and technological missions. These include communications satellites like Starlink; space stations such as the ISS; scientific satellites like the Hubble; Earth observation satellites from companies like Planet Labs, Umbra, and HawkEye 360; GPS; miniature CubeSats for education and research; and military/defense satellites.

Loading next visibility...
Identifier
53780, 2022-111H
Orbit
LEO
Country
Flag of USUS
Related business
Manufacturer
SpaceX/Seattle
Mission
Operational Commercial Communications
Bus & Motor
STARLINK, Unknown motor
Mass
305 kg wet, ~290 kg dry
Launch date (UTC)
2022-09-11 (4 years ago)
Launch vehicle
FALCON 9
Launch site
Air Force Eastern Test Range (AFETR)
Object type
Payload
Rocket body
Debris
Shape & HBR
Box + 1 Pan, 10.1 m
Radar Cross Section
13.562 m², Large (>1 m²)

Expand to show TLE details & history
Last TLE update: 2 days ago

TLE from 2 days ago
0 STARLINK-4678
1 53780U 22111H   26171.29711700  .00000257  00000-0  34226-4 0  9999
2 53780  53.1589 173.5776 0001098  75.6384 284.4729 15.08838444209184
Epoch: 2026-06-20T07:07Z
TLE epoch observation values (Epoch: 2026-06-20T07:07:50.908Z)
Latitude
-0.00006°
Longitude
158.10168°
Altitude
540.45 km
Speed
7.593 km/s
True Right ascension
11h 34m 18s
True Declination
0° 00' 00"
Sunlit
Object was in daylight at epoch
Visualization orbit readout
Latitude
Unknown
Longitude
Unknown
Altitude
Unknown
Speed
Unknown
Apparent Right ascension
Unknown
Apparent Declination
Unknown
Sunlit
N/A
Visualization observer readout
Local Sidereal Time
00:50:06
Azimuth
Unknown
Elevation
Unknown
Doppler factor
Unknown
Orbital elements
Apogee altitude
540.762 km
Perigee altitude
539.243 km
Semi-major axis
6,918.139 km
Eccentricity
0.00011
Inclination
53.1589°
RAAN
173.5776°
Arg. of periapsis
75.6384°
True anomaly
284.46072°
Mean anomaly
284.4729°
Eccentric anomaly
284.46681°
Mean motion
3.77189 °/min
Orbital period
95.44 mins
BSTAR
0.000034226
Loading maneuver chart data...
Computing Atmospheric mass density...

Documentation

Showing up to 5 results
|